Flag for Chile Weather past 2 weeks in Easter Island, Chile

Now
68 °F

Partly cloudy.


Feels Like: 68 °F
Forecast: 65 / 69 °F
Wind: 16 mph from West

Location: Isla De Pascua

Current Time: Jul 30, 2014 at 10:31:37 PM

Latest Report: Jul 30, 2014 at 10:00 PM


Visibility: N/A

Pressure: 30.01 "Hg

Humidity: 83%

Dew point: 63 °F

Location of Easter IslandLocation

Historic Weather in Easter Island — Graph

°F

Easter Island temperature yesterday

Maximum temperature yesterday: 72 °F (at 12:00 PM)
Minimum temperature yesterday: 68 °F (at 12:00 AM)
Average temperature yesterday: 69 °F

Past Weeks' High & Low Weather Summary

 TemperatureHumidityPressure
High73 °F (Jul 30, 2:00 PM)94% (Jul 17, 7:00 AM)30.33 "Hg (Jul 17, 7:00 AM)
Low55 °F (Jul 19, 9:00 AM)53% (Jul 18, 1:00 PM)29.95 "Hg (Jul 30, 4:00 PM)
Average67 °F80%30.13 "Hg
* Reported Jul 15 9:00 PM — Jul 30 9:00 PM, Easter Island, Weather by CustomWeather, © 2014

Note: Actual official high and low records may vary slightly from our data, if they occured in-between our weather recording intervals... More about our weather records

Advertising

Easter Island weather history for previous 24 hours

 ConditionsComfort  
Time TempWeatherWind HumidityBarometerVisibility
9:00 PM
Jul 30
66 °FPassing clouds.15 mph88%29.98 "HgN/A
8:00 PM68 °FBroken clouds.15 mph88%29.98 "HgN/A
7:00 PM68 °FBroken clouds.15 mph88%29.98 "HgN/A
6:00 PM70 °FPassing clouds.14 mph83%29.95 "HgN/A
5:00 PM72 °FScattered clouds.14 mph78%29.95 "HgN/A
4:00 PM72 °FScattered clouds.13 mph78%29.95 "HgN/A
3:00 PM73 °FScattered clouds.14 mph78%29.98 "HgN/A
2:00 PM73 °FPassing clouds.13 mph74%30.01 "HgN/A
1:00 PM72 °FScattered clouds.13 mph78%30.01 "HgN/A
12:00 PM72 °FPartly sunny.14 mph78%30.04 "HgN/A
11:00 AM70 °FBroken clouds.13 mph83%30.04 "HgN/A
10:00 AM70 °FPartly sunny.10 mph83%30.01 "HgN/A
9:00 AM68 °FPartly cloudy.12 mph88%30.01 "HgN/A
8:00 AM68 °FPartly cloudy.13 mph83%29.98 "HgN/A
7:00 AM68 °FPartly cloudy.13 mph83%29.98 "HgN/A
6:00 AM68 °FPartly cloudy.14 mph83%29.98 "HgN/A
5:00 AM68 °FPartly cloudy.14 mph83%29.98 "HgN/A
4:00 AM68 °FPartly cloudy.15 mph83%29.98 "HgN/A
3:00 AM68 °FPartly cloudy.14 mph83%29.98 "HgN/A
2:00 AM68 °FPartly cloudy.14 mph83%29.98 "HgN/A
1:00 AM68 °FPassing clouds.14 mph83%30.01 "HgN/A
12:00 AM68 °FPassing clouds.14 mph83%30.01 "HgN/A
11:00 PM
Jul 29
68 °FPassing clouds.13 mph83%30.01 "HgN/A
10:00 PM68 °FPassing clouds.13 mph88%30.04 "HgN/A
Weather by CustomWeather, © 2014

See weather overviewHow to use our weather pages